Location: �terpigny
(49.8910°N, 2.9249°E)
Time: 11:04:39
(UTC+00:00)

deb Chang Zheng 4 - Pass Details

Date: 24 October 2021
Orbit: 595 x 616 km, 98.6° (Epoch: 30 November)

Event Time Altitude Azimuth Distance (km) Brightness Sun altitude
Rises 17:39:04 0° 166° (SSE) 2,828 6.9 -10.2°
Reaches altitude 10° 17:41:13 10° 167° (SSE) 1,932 6.0 -10.6°
Maximum altitude 17:45:24 81° 254° (WSW) 614 3.6 -11.2°
Drops below altitude 10° 17:49:40 10° 343° (NNW) 1,959 6.3 -11.9°
Sets 17:51:52 0° 345° (NNW) 2,871 7.1 -12.3°
